DW6963 Weather Reports


Display with metric or nautical units.
time (UTC)temp
F
wind
direction
speed
MPH
gust
MPH
rain 1hr
in
rain 24hr
in
rain mn
in
humidity
%
barometer
mb
20260831001955 77 0 0.0 0.0 0.00 0.00 0.00 82 1018.6
20260831001455 77 0 0.0 0.0 0.00 0.00 0.00 80 1018.6
20260831000956 77 0 0.0 0.0 0.00 0.00 0.00 79 1018.5
20260831000455 78 0 0.0 0.0 0.00 0.00 0.00 78 1018.5
20260830235955 78 0 0.0 0.0 0.00 0.00 0.00 76 1018.4
20260830234956 80 0 0.0 0.0 0.00 0.00 0.00 75 1018.4
20260830233956 81 0 0.0 0.0 0.00 0.00 0.00 73 1018.3
20260830233455 82 0 0.0 0.0 0.00 0.00 0.00 72 1018.2
20260830232955 83 0 0.0 0.0 0.00 0.00 0.00 72 1018.2
20260830232455 83 0 0.0 0.0 0.00 0.00 0.00 71 1018.2
20260830231956 84 0 0.0 0.0 0.00 0.00 0.00 71 1018.2
20260830231455 84 0 0.0 0.0 0.00 0.00 0.00 69 1018.1
20260830225455 83 0 0.0 0.0 0.00 0.00 0.00 68 1017.9
20260830224955 83 0 0.0 0.0 0.00 0.00 0.00 69 1017.9
20260830224456 83 0 0.0 0.0 0.00 0.00 0.00 69 1017.8
20260830223455 83 0 0.0 0.0 0.00 0.00 0.00 73 1017.8
20260830222955 82 0 0.0 0.0 0.00 0.00 0.00 72 1017.7
20260830221955 83 0 0.0 0.0 0.00 0.00 0.00 71 1017.9
20260830221455 83 0 0.0 0.0 0.00 0.00 0.00 69 1017.9
20260830220955 83 0 0.0 0.0 0.00 0.00 0.00 68 1018.0
20260830220455 83 0 0.0 0.0 0.00 0.00 0.00 68 1018.1
20260830215955 84 0 0.0 0.0 0.00 0.00 0.00 67 1018.0
20260830215455 84 0 0.0 0.0 0.00 0.00 0.00 67 1018.0
20260830214956 84 0 0.0 0.0 0.00 0.00 0.00 67 1017.9
20260830214455 84 0 0.0 0.0 0.00 0.00 0.00 66 1017.9
20260830213955 84 0 0.0 0.0 0.00 0.00 0.00 64 1018.2
20260830212956 84 0 0.0 0.0 0.00 0.00 0.00 62 1017.9
20260830212455 85 0 0.0 0.0 0.00 0.00 0.00 61 1018.0
20260830211955 85 0 0.0 0.0 0.00 0.00 0.00 62 1018.0
20260830211456 86 0 0.0 0.0 0.00 0.00 0.00 59 1018.0
20260830210955 86 0 0.0 0.0 0.00 0.00 0.00 59 1017.9
20260830205456 86 0 0.0 0.0 0.00 0.00 0.00 61 1017.7
20260830204455 86 0 0.0 0.0 0.00 0.00 0.00 58 1018.1
20260830203955 86 0 0.0 0.0 0.00 0.00 0.00 60 1018.2
20260830203455 86 0 0.0 0.0 0.00 0.00 0.00 59 1018.3
20260830202455 85 0 0.0 0.0 0.00 0.00 0.00 62 1018.7
20260830201455 85 0 0.0 0.0 0.00 0.00 0.00 61 1018.9
20260830200955 85 0 0.0 0.0 0.00 0.00 0.00 61 1019.1
20260830200455 85 0 0.0 0.0 0.00 0.00 0.00 60 1019.2
20260830195956 85 0 0.0 0.0 0.00 0.00 0.00 60 1019.2
20260830195456 85 0 0.0 0.0 0.00 0.00 0.00 61 1019.3
20260830194955 85 0 0.0 0.0 0.00 0.00 0.00 62 1019.4
20260830194455 85 0 0.0 0.0 0.00 0.00 0.00 62 1019.4
20260830193956 85 0 0.0 0.0 0.00 0.00 0.00 61 1019.5
20260830193455 85 0 0.0 0.0 0.00 0.00 0.00 61 1019.7
20260830192955 85 0 0.0 0.0 0.00 0.00 0.00 60 1019.9
20260830192456 85 0 0.0 0.0 0.00 0.00 0.00 61 1020.0
20260830191955 85 0 0.0 0.0 0.00 0.00 0.00 61 1020.1
20260830191455 84 0 0.0 0.0 0.00 0.00 0.00 64 1020.1
20260830190955 84 0 0.0 0.0 0.00 0.00 0.00 63 1020.3
20260830190456 84 0 0.0 0.0 0.00 0.00 0.00 62 1020.3
20260830185955 84 0 0.0 0.0 0.00 0.00 0.00 63 1020.4
20260830185455 84 0 0.0 0.0 0.00 0.00 0.00 63 1020.4
20260830184956 85 0 0.0 0.0 0.00 0.00 0.00 64 1020.4
20260830184455 84 0 0.0 0.0 0.00 0.00 0.00 61 1020.4
20260830183955 84 0 0.0 0.0 0.00 0.00 0.00 64 1020.5
20260830183455 84 0 0.0 0.0 0.00 0.00 0.00 63 1020.6
20260830182956 84 0 0.0 0.0 0.00 0.00 0.00 62 1020.6
20260830182456 84 0 0.0 0.0 0.00 0.00 0.00 62 1020.6
20260830181956 84 0 0.0 0.0 0.00 0.00 0.00 63 1020.6
20260830180956 84 0 0.0 0.0 0.00 0.00 0.00 63 1020.7
20260830175956 85 0 0.0 0.0 0.00 0.00 0.00 62 1020.8
20260830175456 85 0 0.0 0.0 0.00 0.00 0.00 63 1020.8
20260830174956 84 0 0.0 0.0 0.00 0.00 0.00 65 1020.8
20260830174456 85 0 0.0 0.0 0.00 0.00 0.00 62 1020.9
20260830173956 85 0 0.0 0.0 0.00 0.00 0.00 61 1020.9
20260830173456 86 0 0.0 0.0 0.00 0.00 0.00 62 1020.9
20260830172956 86 0 0.0 0.0 0.00 0.00 0.00 60 1021.0
20260830172456 86 0 0.0 0.0 0.00 0.00 0.00 60 1021.1
20260830171955 85 0 0.0 0.0 0.00 0.00 0.00 62 1021.1
20260830171455 85 0 0.0 0.0 0.00 0.00 0.00 61 1021.2
20260830170955 85 0 0.0 0.0 0.00 0.00 0.00 62 1021.2
20260830170456 85 0 0.0 0.0 0.00 0.00 0.00 61 1021.1
20260830165956 85 0 0.0 0.0 0.00 0.00 0.00 63 1021.1
20260830165455 85 0 0.0 0.0 0.00 0.00 0.00 65 1021.2
20260830164955 84 0 0.0 0.0 0.00 0.00 0.00 64 1021.2
20260830164455 84 0 0.0 0.0 0.00 0.00 0.00 64 1021.2
20260830163956 84 0 0.0 0.0 0.00 0.00 0.00 65 1021.2
20260830163456 84 0 0.0 0.0 0.00 0.00 0.00 67 1021.2
20260830162956 83 0 0.0 0.0 0.00 0.00 0.00 65 1021.2
20260830162455 84 0 0.0 0.0 0.00 0.00 0.00 66 1021.1
20260830161955 83 0 0.0 0.0 0.00 0.00 0.00 65 1021.1
20260830161456 83 0 0.0 0.0 0.00 0.00 0.00 66 1021.1
20260830160956 83 0 0.0 0.0 0.00 0.00 0.00 68 1021.2
20260830160456 83 0 0.0 0.0 0.00 0.00 0.00 68 1021.1
20260830155955 83 0 0.0 0.0 0.00 0.00 0.00 68 1021.1
20260830155455 83 0 0.0 0.0 0.00 0.00 0.00 70 1021.1
20260830154955 83 0 0.0 0.0 0.00 0.00 0.00 69 1021.0
20260830154456 82 0 0.0 0.0 0.00 0.00 0.00 69 1021.1
20260830153956 82 0 0.0 0.0 0.00 0.00 0.00 71 1021.0
20260830153455 82 0 0.0 0.0 0.00 0.00 0.00 72 1021.0
20260830152956 82 0 0.0 0.0 0.00 0.00 0.00 72 1021.0
20260830152455 81 0 0.0 0.0 0.00 0.00 0.00 74 1021.0
20260830151955 81 0 0.0 0.0 0.00 0.00 0.00 73 1020.9
20260830151455 81 0 0.0 0.0 0.00 0.00 0.00 74 1020.9
20260830150956 80 0 0.0 0.0 0.00 0.00 0.00 74 1020.7
20260830150456 80 0 0.0 0.0 0.00 0.00 0.00 73 1020.7
20260830145955 80 0 0.0 0.0 0.00 0.00 0.00 75 1020.7
20260830145456 80 0 0.0 0.0 0.00 0.00 0.00 75 1020.7
20260830144956 79 0 0.0 0.0 0.00 0.00 0.00 75 1020.6
20260830143956 79 0 0.0 0.0 0.00 0.00 0.00 76 1020.4
20260830142955 78 0 0.0 0.0 0.00 0.00 0.00 77 1020.4
20260830141455 78 0 0.0 0.0 0.00 0.00 0.00 77 1020.1
20260830140955 77 0 0.0 0.0 0.00 0.00 0.00 78 1020.0
20260830140455 77 0 0.0 0.0 0.00 0.00 0.00 78 1020.0
20260830135955 77 0 0.0 0.0 0.00 0.00 0.00 78 1020.1
20260830135455 76 0 0.0 0.0 0.00 0.00 0.00 79 1020.1
20260830134955 76 0 0.0 0.0 0.00 0.00 0.00 80 1020.0
20260830134455 76 0 0.0 0.0 0.00 0.00 0.00 80 1020.0
20260830133955 75 0 0.0 0.0 0.00 0.00 0.00 81 1020.1
20260830133456 75 0 0.0 0.0 0.00 0.00 0.00 81 1020.1
20260830132955 74 0 0.0 0.0 0.00 0.00 0.00 82 1020.1
20260830131955 73 0 0.0 0.0 0.00 0.00 0.00 83 1020.2
20260830131455 73 0 0.0 0.0 0.00 0.00 0.00 83 1020.3
20260830130956 73 0 0.0 0.0 0.00 0.00 0.00 84 1020.3
20260830130455 72 0 0.0 0.0 0.00 0.00 0.00 84 1020.2
20260830125956 72 0 0.0 0.0 0.00 0.00 0.00 85 1020.2
20260830125456 72 0 0.0 0.0 0.00 0.00 0.00 85 1020.2
20260830124955 71 0 0.0 0.0 0.00 0.00 0.00 86 1020.2
20260830124456 71 0 0.0 0.0 0.00 0.00 0.00 88 1020.3
20260830123956 70 0 0.0 0.0 0.00 0.00 0.00 89 1020.4
20260830123455 69 0 0.0 0.0 0.00 0.00 0.00 90 1020.4
20260830122956 69 0 0.0 0.0 0.00 0.00 0.00 90 1020.5
20260830122456 68 0 0.0 0.0 0.00 0.00 0.00 90 1020.6
20260830121956 68 0 0.0 0.0 0.00 0.00 0.00 90 1020.6
20260830121456 67 0 0.0 0.0 0.00 0.00 0.00 90 1020.5
20260830120956 67 0 0.0 0.0 0.00 0.00 0.00 90 1020.4
20260830120456 67 0 0.0 0.0 0.00 0.00 0.00 90 1020.3
20260830115956 66 0 0.0 0.0 0.00 0.00 0.00 90 1020.3
20260830115455 66 0 0.0 0.0 0.00 0.00 0.00 90 1020.3
20260830114955 66 0 0.0 0.0 0.00 0.00 0.00 90 1020.2
20260830114455 65 0 0.0 0.0 0.00 0.00 0.00 90 1020.2
20260830113956 65 0 0.0 0.0 0.00 0.00 0.00 90 1020.2
20260830113456 65 0 0.0 0.0 0.00 0.00 0.00 90 1020.1
20260830112956 65 0 0.0 0.0 0.00 0.00 0.00 90 1020.1
20260830112455 65 0 0.0 0.0 0.00 0.00 0.00 90 1020.1
20260830111955 65 0 0.0 0.0 0.00 0.00 0.00 90 1020.0
20260830111456 65 0 0.0 0.0 0.00 0.00 0.00 90 1020.0
20260830110455 65 0 0.0 0.0 0.00 0.00 0.00 89 1019.9
20260830105955 65 0 0.0 0.0 0.00 0.00 0.00 89 1019.9
20260830104956 65 0 0.0 0.0 0.00 0.00 0.00 89 1019.8
20260830104456 65 0 0.0 0.0 0.00 0.00 0.00 89 1019.9
20260830103955 65 0 0.0 0.0 0.00 0.00 0.00 88 1019.9
20260830103455 65 0 0.0 0.0 0.00 0.00 0.00 88 1019.8
20260830102956 65 0 0.0 0.0 0.00 0.00 0.00 88 1019.8
20260830102456 66 0 0.0 0.0 0.00 0.00 0.00 88 1019.8
20260830101955 66 0 0.0 0.0 0.00 0.00 0.00 88 1019.7
20260830101455 66 0 0.0 0.0 0.00 0.00 0.00 87 1019.7
20260830100956 66 0 0.0 0.0 0.00 0.00 0.00 87 1019.8
20260830100455 66 0 0.0 0.0 0.00 0.00 0.00 87 1019.7
20260830095455 66 0 0.0 0.0 0.00 0.00 0.00 87 1019.6
20260830094956 66 0 0.0 0.0 0.00 0.00 0.00 87 1019.6
20260830094455 66 0 0.0 0.0 0.00 0.00 0.00 87 1019.5
20260830093956 67 0 0.0 0.0 0.00 0.00 0.00 87 1019.6
20260830093456 67 0 0.0 0.0 0.00 0.00 0.00 87 1019.5
20260830092955 67 0 0.0 0.0 0.00 0.00 0.00 87 1019.5
20260830091955 67 0 0.0 0.0 0.00 0.00 0.00 87 1019.7
20260830091456 67 0 0.0 0.0 0.00 0.00 0.00 87 1019.7
20260830090956 67 0 0.0 0.0 0.00 0.00 0.00 88 1019.7
20260830090455 66 0 0.0 0.0 0.00 0.00 0.00 88 1019.7
20260830085955 66 0 0.0 0.0 0.00 0.00 0.00 88 1019.7
20260830084955 66 0 0.0 0.0 0.00 0.00 0.00 88 1019.6
20260830084456 66 0 0.0 0.0 0.00 0.00 0.00 88 1019.7
20260830083455 66 0 0.0 0.0 0.00 0.00 0.00 88 1019.7
20260830082955 66 0 0.0 0.0 0.00 0.00 0.00 89 1019.7
20260830082456 66 0 0.0 0.0 0.00 0.00 0.00 89 1019.7
20260830081956 66 0 0.0 0.0 0.00 0.00 0.00 89 1019.7
20260830080956 66 0 0.0 0.0 0.00 0.00 0.00 89 1019.8
20260830080456 66 0 0.0 0.0 0.00 0.00 0.00 89 1019.8
20260830075956 66 0 0.0 0.0 0.00 0.00 0.00 89 1019.8
20260830075455 66 0 0.0 0.0 0.00 0.00 0.00 89 1019.9
20260830074955 66 0 0.0 0.0 0.00 0.00 0.00 89 1019.8
20260830074456 66 0 0.0 0.0 0.00 0.00 0.00 89 1019.8
20260830073955 66 0 0.0 0.0 0.00 0.00 0.00 89 1019.9
20260830072955 66 0 0.0 0.0 0.00 0.00 0.00 89 1019.9
20260830072456 66 0 0.0 0.0 0.00 0.00 0.00 89 1020.0
20260830071456 65 0 0.0 0.0 0.00 0.00 0.00 89 1020.1
20260830070955 65 0 0.0 0.0 0.00 0.00 0.00 89 1020.2
20260830070456 65 0 0.0 0.0 0.00 0.00 0.00 89 1020.2
20260830065956 65 0 0.0 0.0 0.00 0.00 0.00 89 1020.2
20260830065455 65 0 0.0 0.0 0.00 0.00 0.00 89 1020.2
20260830064955 65 0 0.0 0.0 0.00 0.00 0.00 89 1020.2
20260830064456 65 0 0.0 0.0 0.00 0.00 0.00 89 1020.2
20260830063956 65 0 0.0 0.0 0.00 0.00 0.00 89 1020.3
20260830063456 65 0 0.0 0.0 0.00 0.00 0.00 89 1020.3
20260830062955 66 0 0.0 0.0 0.00 0.00 0.00 89 1020.3
20260830062455 66 0 0.0 0.0 0.00 0.00 0.00 89 1020.4
20260830061956 66 0 0.0 0.0 0.00 0.00 0.00 90 1020.4
20260830061455 65 0 0.0 0.0 0.00 0.00 0.00 90 1020.5
20260830060456 65 0 0.0 0.0 0.00 0.00 0.00 89 1020.5
20260830055956 65 0 0.0 0.0 0.00 0.00 0.00 89 1020.5
20260830055455 65 0 0.0 0.0 0.00 0.00 0.00 89 1020.4
20260830054456 65 0 0.0 0.0 0.00 0.00 0.00 89 1020.4
20260830053955 65 0 0.0 0.0 0.00 0.00 0.00 89 1020.3
20260830053456 65 0 0.0 0.0 0.00 0.00 0.00 89 1020.3
20260830052455 65 0 0.0 0.0 0.00 0.00 0.00 89 1020.3
20260830051956 65 0 0.0 0.0 0.00 0.00 0.00 89 1020.3
20260830051456 65 0 0.0 0.0 0.00 0.00 0.00 89 1020.4
20260830050956 65 0 0.0 0.0 0.00 0.00 0.00 89 1020.4
20260830050456 65 0 0.0 0.0 0.00 0.00 0.00 89 1020.4
20260830045456 65 0 0.0 0.0 0.00 0.00 0.00 89 1020.3
20260830043955 65 0 0.0 0.0 0.00 0.00 0.00 89 1020.3
20260830043456 66 0 0.0 0.0 0.00 0.00 0.00 89 1020.2
20260830042955 66 0 0.0 0.0 0.00 0.00 0.00 89 1020.2
20260830042456 66 0 0.0 0.0 0.00 0.00 0.00 89 1020.1
20260830041956 66 0 0.0 0.0 0.00 0.00 0.00 89 1020.2
20260830041455 66 0 0.0 0.0 0.00 0.00 0.00 89 1020.2
20260830040955 66 0 0.0 0.0 0.00 0.00 0.00 88 1020.2
20260830040455 66 0 0.0 0.0 0.00 0.00 0.00 88 1020.2
20260830035959 66 0 0.0 0.0 0.00 0.00 0.00 88 1020.2
20260830033956 67 0 0.0 0.0 0.00 0.00 0.00 88 1020.2
20260830033456 67 0 0.0 0.0 0.00 0.00 0.00 88 1020.2
20260830032956 67 0 0.0 0.0 0.00 0.00 0.00 87 1020.3
20260830032456 67 0 0.0 0.0 0.00 0.00 0.00 87 1020.3
20260830031455 68 0 0.0 0.0 0.00 0.00 0.00 86 1020.3
20260830030955 68 0 0.0 0.0 0.00 0.00 0.00 86 1020.3
20260830030456 68 0 0.0 0.0 0.00 0.00 0.00 85 1020.3
20260830025956 68 0 0.0 0.0 0.00 0.00 0.00 85 1020.2
20260830024956 69 0 0.0 0.0 0.00 0.00 0.00 85 1020.1
20260830024456 69 0 0.0 0.0 0.00 0.00 0.00 84 1020.1
20260830023956 69 0 0.0 0.0 0.00 0.00 0.00 83 1020.1
20260830023455 69 0 0.0 0.0 0.00 0.00 0.00 82 1020.0
20260830022956 69 0 0.0 0.0 0.00 0.00 0.00 82 1020.1
20260830022455 69 0 0.0 0.0 0.00 0.00 0.00 82 1020.1
20260830021956 70 0 0.0 0.0 0.00 0.00 0.00 82 1020.1
20260830021456 70 0 0.0 0.0 0.00 0.00 0.00 82 1020.1
20260830020955 70 0 0.0 0.0 0.00 0.00 0.00 82 1020.1
20260830020456 70 0 0.0 0.0 0.00 0.00 0.00 82 1020.1
20260830015956 70 0 0.0 0.0 0.00 0.00 0.00 82 1020.0
20260830015456 70 0 0.0 0.0 0.00 0.00 0.00 82 1020.0
20260830014956 70 0 0.0 0.0 0.00 0.00 0.00 82 1019.9
20260830014455 70 0 0.0 0.0 0.00 0.00 0.00 81 1019.9
20260830012456 71 0 0.0 0.0 0.00 0.00 0.00 80 1019.8
20260830010956 72 0 0.0 0.0 0.00 0.00 0.00 80 1019.6
20260830010456 72 0 0.0 0.0 0.00 0.00 0.00 79 1019.5
20260830005956 72 0 0.0 0.0 0.00 0.00 0.00 78 1019.5
20260830005455 72 0 0.0 0.0 0.00 0.00 0.00 78 1019.5
20260830004956 72 0 0.0 0.0 0.00 0.00 0.00 78 1019.6
20260830004456 73 0 0.0 0.0 0.00 0.00 0.00 77 1019.5
20260830003456 73 0 0.0 0.0 0.00 0.00 0.00 77 1019.5
20260830002956 74 0 0.0 0.0 0.00 0.00 0.00 76 1019.6
20260830002455 74 0 0.0 0.0 0.00 0.00 0.00 76 1019.5